Location: Beutels
(47.8767°N, 9.8584°E)
Time: 13:12:15
(UTC+00:00)

ISS - Pass Details

Date: 22 January 2026
Orbit: 413 x 429 km, 51.6° (Epoch: 11 February)

Event Time Altitude Azimuth Distance (km) Brightness Sun altitude
Rises 18:26:25 0° 291° (WNW) 2,368 1.1 -23.3°
Reaches altitude 10° 18:28:32 10° 295° (WNW) 1,506 -0.1 -23.7°
Enters shadow 18:30:36 33° 309° (NW) 734 -2.2 -24.0°
